Home   Weather   Coral Harbour   Past weeks
Flag for Canada

Past Weather in Coral Harbour, Nunavut, Canada — Yesterday and Last 2 Weeks

Now
21 °F

Partly sunny.


Feels Like: 12 °F
Forecast: 29 / 15 °F
Wind: 8 mph from Southeast

Location: Coral Harbour

Current Time: Oct 18, 2019 at 9:28:39 am

Latest Report: Oct 18, 2019 at 9:00 am


Visibility: 15 mi

Pressure: 30.16 "Hg

Humidity: 80%

Dew Point: 16 °F

Location of Coral HarbourLocation

Past Weather in Coral Harbour — Graph

°F

Coral Harbour Temperature Yesterday

Maximum temperature yesterday: 25 °F (at 1:00 pm)
Minimum temperature yesterday: 16 °F (at 6:00 am)
Average temperature yesterday: 20 °F

High & Low Weather Summary for the Past Weeks

 TemperatureHumidityPressure
High37 °F (Oct 6, 11:54 am)100% (Oct 3, 9:36 am)30.27 "Hg (Oct 3, 9:36 am)
Low14 °F (Oct 18, 2:00 am)63% (Oct 17, 2:00 pm)29.29 "Hg (Oct 7, 12:00 am)
Average30 °F89%29.84 "Hg
* Reported Oct 3 8:00 am — Oct 18 8:00 am, Coral Harbour. Weather by CustomWeather, © 2019

Note: Actual official high and low records may vary slightly from our data, if they occured in-between our weather recording intervals... More about our weather records

Advertising

Coral Harbour Weather History for the Previous 24 Hours

Scroll right to see more
 ConditionsComfort  
Time TempWeatherWind HumidityBarometerVisibility
8:00 am
Fri, Oct 18
21 °FPassing clouds.7 mph74%30.16 "Hg15 mi
7:00 am18 °FPassing clouds.5 mph86%30.16 "Hg15 mi
6:00 am16 °FPassing clouds.8 mph86%30.16 "Hg15 mi
5:19 am16 °FPassing clouds.7 mph86%30.14 "Hg15 mi
4:00 am14 °FPassing clouds.3 mph92%30.15 "Hg15 mi
3:00 am16 °FPartly cloudy.7 mph86%30.15 "Hg15 mi
2:00 am14 °FPartly cloudy.7 mph92%30.14 "Hg15 mi
1:00 am16 °FPassing clouds.6 mph86%30.13 "Hg15 mi
12:00 am16 °FPartly cloudy.8 mph86%30.14 "Hg15 mi
11:00 pm
Thu, Oct 17
16 °FPartly cloudy.7 mph86%30.13 "Hg15 mi
10:00 pm16 °FPassing clouds.7 mph79%30.12 "Hg15 mi
9:00 pm16 °FPassing clouds.8 mph86%30.13 "Hg15 mi
8:00 pm16 °FPassing clouds.7 mph79%30.13 "Hg15 mi
7:00 pm18 °FPassing clouds.9 mph79%30.13 "Hg15 mi
6:00 pm18 °FScattered clouds.9 mph86%30.13 "Hg15 mi
5:00 pm19 °FScattered clouds.8 mph86%30.13 "Hg15 mi
4:00 pm23 °FScattered clouds.12 mph74%30.11 "Hg15 mi
3:00 pm25 °FScattered clouds.14 mph69%30.11 "Hg15 mi
2:00 pm25 °FScattered clouds.16 mph63%30.11 "Hg15 mi
1:00 pm25 °FScattered clouds.14 mph69%30.10 "Hg15 mi
12:00 pm23 °FPartly sunny.13 mph74%30.10 "Hg15 mi
11:00 am23 °FScattered clouds.10 mph74%30.11 "Hg15 mi
9:00 am23 °FLight snow. Partly sunny.10 mph74%30.10 "Hg15 mi
Weather by CustomWeather, © 2019

See weather overview